Location: Colonia Mina de C?rbuni
(46.1667°N, 22.7167°E)
Time: 08:57:08
(UTC+00:00)

Vanguard 1 - Pass Details

Date: 18 April 2024
Orbit: 652 x 3825 km, 34.2° (Epoch: 29 May)

Event Time Altitude Azimuth Distance (km) Brightness Sun altitude
Exits shadow 02:08:33 - 209° (SSW) 7,018 13.9 -14.6°
Reaches altitude 10° 02:09:48 10° 208° (SSW) 6,798 13.8 -14.5°
Maximum altitude 02:27:11 33° 155° (SSE) 4,226 13.2 -11.9°
Drops below altitude 10° 02:39:04 10° 98° (E) 4,682 14.4 -10.1°
Sets 02:42:30 0° 89° (E) 5,287 15.1 -9.6°
